DW6169 Weather Reports


Display with metric or nautical units.
time (UTC)temp
F
wind
direction
speed
MPH
gust
MPH
rain 1hr
in
rain 24hr
in
rain mn
in
humidity
%
barometer
mb
20260903063601 77 0 0.0 0.0 0.00 1.35 0.01 88 1014.1
20260903063102 77 0 0.0 0.0 0.00 1.35 0.01 88 1014.0
20260903062558 77 0 0.0 0.0 0.00 1.35 0.01 88 1013.9
20260903062059 78 0 0.0 0.0 0.00 1.35 0.01 88 1013.8
20260903061602 78 0 0.0 0.0 0.00 1.35 0.01 88 1014.1
20260903061059 78 0 0.0 0.0 0.00 1.35 0.01 88 1014.3
20260903060557 78 0 0.0 0.0 0.00 1.35 0.01 88 1014.5
20260903060114 78 0 0.0 0.0 0.00 1.35 0.01 88 1014.6
20260903055601 77 0 0.0 0.0 0.00 1.35 0.01 88 1014.6
20260903055100 77 0 0.0 0.0 0.00 1.35 0.01 88 1014.6
20260903054618 77 0 0.0 0.0 0.00 1.35 0.01 88 1014.7
20260903054100 77 0 0.0 2.0 0.00 1.35 0.01 88 1014.7
20260903053604 77 0 0.0 2.0 0.00 1.35 0.01 88 1014.9
20260903053109 78 0 0.0 2.0 0.00 1.35 0.01 88 1015.0
20260903052558 77 0 0.0 1.0 0.00 1.35 0.01 88 1015.2
20260903052059 77 0 0.0 0.0 0.00 1.35 0.01 88 1015.1
20260903051612 77 0 0.0 0.0 0.00 1.35 0.01 88 1015.2
20260903051057 77 0 0.0 0.0 0.01 1.35 0.01 88 1015.2
20260903050557 77 0 0.0 2.0 0.01 1.35 0.01 88 1015.0
20260903050111 77 0 0.0 2.0 0.01 1.35 0.01 88 1015.1
20260903045602 77 0 0.0 0.0 0.01 1.35 0.01 87 1015.3
20260903045100 77 0 0.0 0.0 0.01 1.35 0.01 87 1015.5
20260903044603 77 0 0.0 0.0 0.01 1.35 0.01 87 1015.7
20260903044058 77 0 0.0 0.0 0.01 1.35 0.01 87 1015.7
20260903043559 77 0 0.0 0.0 0.01 1.35 0.01 87 1015.6
20260903043106 77 0 0.0 0.0 0.01 1.35 0.01 87 1015.4
20260903042559 77 0 0.0 0.0 0.01 1.35 0.01 87 1015.3
20260903042059 77 0 0.0 5.0 0.01 1.35 0.01 87 1015.4
20260903041614 77 0 0.0 5.0 0.01 1.35 0.01 87 1015.7
20260903041100 78 0 0.0 0.0 0.00 1.34 0.00 87 1015.8
20260903040601 78 0 0.0 1.0 0.00 1.34 0.00 87 1015.8
20260903040126 78 0 0.0 1.0 0.00 1.34 0.00 87 1015.8
20260903035558 78 0 0.0 3.0 0.00 1.34 1.34 87 1015.8
20260903035058 78 0 0.0 3.0 0.00 1.34 1.34 87 1015.9
20260903034606 78 205 0.0 1.0 0.00 1.34 1.34 87 1015.8
20260903034102 78 0 0.0 0.0 0.00 1.34 1.34 87 1015.9
20260903033558 78 0 0.0 0.0 0.01 1.34 1.34 87 1015.9
20260903033107 78 0 0.0 0.0 0.02 1.34 1.34 86 1016.1
20260903032557 78 0 0.0 0.0 0.04 1.34 1.34 86 1015.8
20260903032058 78 0 0.0 0.0 0.04 1.34 1.34 86 1015.7
20260903031610 78 0 0.0 0.0 0.04 1.34 1.34 86 1015.7
20260903031104 78 0 0.0 0.0 0.04 1.34 1.34 86 1015.8
20260903030600 78 0 0.0 0.0 0.04 1.34 1.34 86 1015.8
20260903030103 78 0 0.0 0.0 0.04 1.34 1.34 86 1015.9
20260903025558 78 0 0.0 0.0 0.04 1.34 1.34 85 1015.9
20260903025058 78 0 0.0 0.0 0.04 1.34 1.34 85 1015.8
20260903024609 78 0 0.0 0.0 0.04 1.34 1.34 85 1015.7
20260903024059 78 0 0.0 1.0 0.04 1.34 1.34 85 1015.8
20260903023559 78 0 0.0 2.0 0.04 1.33 1.33 85 1015.5
20260903023106 78 0 0.0 2.0 0.04 1.32 1.32 85 1015.4
20260903022601 78 0 0.0 2.0 0.03 1.30 1.30 85 1015.3
20260903022059 79 0 0.0 2.0 0.09 1.30 1.30 85 1015.1
20260903021604 79 0 0.0 2.0 0.11 1.30 1.30 85 1015.0
20260903021101 79 0 0.0 2.0 0.16 1.30 1.30 84 1015.2
20260903020600 79 0 0.0 2.0 0.22 1.30 1.30 83 1015.4
20260903020105 79 0 0.0 0.0 0.25 1.30 1.30 83 1015.4
20260903015559 79 0 0.0 0.0 0.25 1.30 1.30 83 1015.3
20260903015059 79 0 0.0 0.0 0.25 1.30 1.30 83 1015.2
20260903014604 79 0 0.0 2.0 0.25 1.30 1.30 83 1015.0
20260903014058 79 0 0.0 2.0 0.25 1.30 1.30 82 1015.1
20260903013559 79 0 0.0 3.0 0.24 1.29 1.29 82 1015.2
20260903013103 79 0 0.0 3.0 0.23 1.28 1.28 81 1015.3
20260903012558 79 0 0.0 2.0 0.22 1.27 1.27 81 1015.4
20260903012102 79 0 0.0 2.0 0.16 1.21 1.21 80 1015.2
20260903011602 80 0 0.0 6.0 0.14 1.19 1.19 79 1015.2
20260903011101 81 219 1.0 8.0 0.09 1.14 1.14 78 1015.1
20260903010559 82 207 2.0 8.0 0.03 1.08 1.08 76 1014.9
20260903010108 84 209 2.0 5.0 0.00 1.04 1.04 77 1014.7
20260903005600 84 0 0.0 2.0 0.00 1.04 1.04 78 1014.8
20260903005058 84 0 0.0 2.0 0.00 1.04 1.04 78 1014.6
20260903004602 84 0 0.0 4.0 0.00 1.04 1.04 78 1014.6
20260903004059 84 0 0.0 6.0 0.00 1.04 1.04 78 1014.5
20260903003559 84 114 0.0 6.0 0.00 1.04 1.04 78 1014.3
20260903003106 84 80 0.0 1.0 0.00 1.04 1.04 78 1014.3
20260903002600 84 0 0.0 2.0 0.00 1.04 1.04 78 1014.2
20260903002059 84 0 0.0 2.0 0.00 1.04 1.04 78 1014.2
20260903001609 84 0 0.0 2.0 0.00 1.04 1.04 78 1014.2
20260903001058 85 0 0.0 1.0 0.00 1.04 1.04 77 1014.3
20260903000559 85 0 0.0 1.0 0.00 1.04 1.04 77 1014.2
20260903000103 85 0 0.0 1.0 0.00 1.04 1.04 77 1014.2
20260902235559 85 0 0.0 2.0 0.00 1.04 1.04 77 1014.3
20260902235100 85 0 0.0 4.0 0.00 1.04 1.04 77 1014.3
20260902234606 85 0 0.0 4.0 0.00 1.04 1.04 76 1014.2
20260902234102 85 0 0.0 3.0 0.00 1.04 1.04 76 1014.1
20260902233559 85 0 0.0 3.0 0.00 1.04 1.04 76 1014.0
20260902233108 86 123 0.0 1.0 0.00 1.04 1.04 76 1014.1
20260902232559 86 0 0.0 1.0 0.00 1.04 1.04 75 1014.1
20260902232058 86 0 0.0 2.0 0.00 1.04 1.04 75 1014.2
20260902231606 86 0 0.0 3.0 0.00 1.04 1.04 74 1014.4
20260902231102 86 0 0.0 3.0 0.00 1.04 1.04 74 1014.5
20260902230603 87 0 0.0 6.0 0.00 1.04 1.04 74 1014.4
20260902230120 87 0 0.0 6.0 0.00 1.04 1.04 73 1014.1
20260902225559 87 150 1.0 6.0 0.00 1.04 1.04 73 1013.9
20260902225100 87 202 0.0 4.0 0.00 1.04 1.04 72 1014.1
20260902224607 87 0 0.0 4.0 0.00 1.04 1.04 72 1014.0
20260902224059 88 153 0.0 3.0 0.00 1.04 1.04 72 1013.9
20260902223600 88 144 0.0 3.0 0.00 1.04 1.04 71 1013.9
20260902223110 89 0 0.0 3.0 0.00 1.04 1.04 70 1013.8
20260902222559 89 0 0.0 4.0 0.00 1.04 1.04 70 1013.9
20260902222100 90 105 0.0 6.0 0.00 1.04 1.04 69 1014.0
20260902221608 90 146 0.0 6.0 0.00 1.04 1.04 69 1014.0
20260902221059 90 107 1.0 4.0 0.00 1.04 1.04 69 1013.9
20260902220559 91 0 1.0 6.0 0.00 1.04 1.04 69 1013.9
20260902220123 91 131 0.0 6.0 0.00 1.04 1.04 68 1013.8
20260902215558 91 153 2.0 5.0 0.00 1.04 1.04 68 1013.9
20260902215100 91 0 0.0 4.0 0.00 1.04 1.04 67 1014.0
20260902214637 91 0 0.0 3.0 0.00 1.04 1.04 66 1013.9
20260902214058 91 0 0.0 6.0 0.00 1.04 1.04 68 1013.9
20260902213601 91 0 1.0 7.0 0.00 1.04 1.04 68 1014.0
20260902213107 91 0 1.0 7.0 0.00 1.04 1.04 67 1014.1
20260902212558 91 0 0.0 8.0 0.00 1.04 1.04 67 1014.0
20260902212058 91 148 1.0 8.0 0.00 1.04 1.04 68 1014.1
20260902211605 92 92 1.0 5.0 0.00 1.04 1.04 67 1014.0
20260902211058 92 0 0.0 4.0 0.00 1.04 1.04 67 1013.9
20260902210559 91 0 0.0 4.0 0.00 1.04 1.04 68 1013.9
20260902210136 91 92 1.0 6.0 0.00 1.04 1.04 67 1013.9
20260902205557 91 82 1.0 6.0 0.00 1.04 1.04 68 1013.7
20260902205057 92 65 0.0 3.0 0.00 1.04 1.04 68 1013.5
20260902204604 92 0 0.0 3.0 0.00 1.04 1.04 68 1013.7
20260902204059 91 0 0.0 4.0 0.00 1.04 1.04 69 1013.7
20260902203558 91 0 0.0 4.0 0.00 1.04 1.04 70 1013.9
20260902203107 90 0 0.0 4.0 0.00 1.04 1.04 71 1013.9
20260902202559 90 0 0.0 4.0 0.00 1.04 1.04 72 1013.9
20260902202058 89 0 0.0 4.0 0.00 1.04 1.04 74 1014.0
20260902201627 88 0 0.0 3.0 0.00 1.04 1.04 75 1014.2
20260902201102 87 0 0.0 3.0 0.00 1.04 1.04 77 1014.2
20260902200558 87 0 0.0 6.0 0.00 1.04 1.04 78 1014.2
20260902200112 86 0 0.0 6.0 0.00 1.04 1.04 80 1014.3
20260902195559 86 0 0.0 3.0 0.00 1.41 1.04 81 1014.4
20260902195057 85 0 0.0 2.0 0.00 1.41 1.04 82 1014.4
20260902194603 85 0 0.0 2.0 0.00 1.41 1.04 82 1014.4
20260902194101 85 0 0.0 2.0 0.00 1.41 1.04 82 1014.5
20260902193557 84 0 0.0 2.0 0.00 1.41 1.04 82 1014.6
20260902193107 84 0 0.0 2.0 0.00 1.41 1.04 82 1014.5
20260902192558 84 0 0.0 2.0 0.00 1.41 1.04 82 1014.7
20260902192101 84 0 0.0 1.0 0.00 1.41 1.04 82 1014.9
20260902191605 84 0 0.0 1.0 0.00 1.41 1.04 82 1015.0
20260902191058 84 0 0.0 1.0 0.00 1.41 1.04 81 1014.9
20260902190559 84 0 0.0 1.0 0.00 1.41 1.04 80 1015.1
20260902190128 84 0 0.0 1.0 0.00 1.41 1.04 79 1015.3
20260902185558 84 0 0.0 3.0 0.00 1.45 1.04 78 1015.5
20260902185058 84 0 0.0 3.0 0.00 1.45 1.04 78 1015.5
20260902184611 84 0 0.0 2.0 0.00 1.45 1.04 78 1015.5
20260902184059 84 0 0.0 0.0 0.00 1.45 1.04 77 1015.3
20260902183558 84 0 0.0 2.0 0.00 1.45 1.04 78 1015.3
20260902183113 85 0 0.0 6.0 0.01 1.45 1.04 78 1015.4
20260902182557 85 250 2.0 6.0 0.02 1.45 1.04 79 1015.3
20260902182058 85 256 1.0 5.0 0.05 1.45 1.04 81 1015.3
20260902181624 85 0 0.0 3.0 0.15 1.45 1.04 84 1015.4
20260902181100 84 0 0.0 3.0 0.49 1.45 1.04 85 1015.3
20260902180559 83 0 0.0 3.0 0.79 1.45 1.04 86 1015.3
20260902175558 82 0 0.0 4.0 1.04 1.45 1.04 85 1015.5
20260902175059 82 96 1.0 4.0 1.04 1.45 1.04 85 1015.7
20260902174606 83 99 0.0 4.0 1.04 1.45 1.04 87 1015.8
20260902174058 82 102 1.0 4.0 1.04 1.45 1.04 85 1015.7
20260902173558 81 59 2.0 6.0 1.04 1.45 1.04 84 1015.8
20260902173109 81 103 1.0 8.0 1.04 1.44 1.04 83 1015.9
20260902172557 81 93 3.0 8.0 1.03 1.43 1.03 82 1015.8
20260902172101 82 82 2.0 8.0 1.00 1.40 1.00 79 1015.9
20260902171621 83 120 3.0 7.0 0.90 1.30 0.90 77 1016.2
20260902171102 86 108 1.0 5.0 0.55 0.95 0.55 74 1016.4
20260902170559 87 253 1.0 5.0 0.25 0.65 0.25 73 1016.3
20260902170103 88 221 0.0 4.0 0.00 0.40 0.00 71 1016.1
20260902165558 88 0 0.0 7.0 0.00 0.40 0.00 70 1016.0
20260902165101 88 98 0.0 7.0 0.00 0.40 0.00 70 1016.1
20260902164607 88 157 0.0 6.0 0.00 0.40 0.00 69 1016.1
20260902164058 89 0 2.0 8.0 0.00 0.40 0.00 69 1016.2
20260902163602 89 32 2.0 8.0 0.00 0.40 0.00 69 1016.2
20260902163103 89 85 0.0 4.0 0.00 0.40 0.00 70 1016.2
20260902162600 89 156 0.0 4.0 0.00 0.40 0.00 70 1016.2
20260902162102 88 0 1.0 4.0 0.00 0.40 0.00 70 1016.1
20260902161605 88 101 2.0 6.0 0.00 0.40 0.00 70 1016.2
20260902161058 89 132 1.0 8.0 0.00 0.40 0.00 69 1016.2
20260902160558 89 67 2.0 8.0 0.00 0.40 0.00 68 1016.2
20260902160106 90 84 3.0 7.0 0.00 0.40 0.00 68 1016.2
20260902155558 91 17 1.0 7.0 0.00 0.40 0.00 68 1016.3
20260902155058 91 103 0.0 8.0 0.00 0.40 0.00 68 1016.3
20260902154605 91 44 3.0 8.0 0.00 0.40 0.00 67 1016.4
20260902154058 91 99 2.0 4.0 0.00 0.40 0.00 68 1016.4
20260902153557 91 0 1.0 4.0 0.00 0.40 0.00 69 1016.5
20260902153104 90 0 0.0 0.0 0.00 0.40 0.00 68 1016.6
20260902152559 90 0 0.0 3.0 0.00 0.40 0.00 69 1016.5
20260902152101 89 0 0.0 3.0 0.00 0.40 0.00 68 1016.6
20260902151607 89 88 0.0 3.0 0.00 0.40 0.00 68 1016.7
20260902151059 89 0 0.0 3.0 0.00 0.40 0.00 70 1016.6
20260902150558 89 0 0.0 1.0 0.00 0.40 0.00 71 1016.6
20260902150113 88 0 0.0 2.0 0.00 0.40 0.00 71 1016.5
20260902145558 88 0 0.0 2.0 0.00 0.40 0.00 71 1016.6
20260902145058 88 0 0.0 0.0 0.00 0.40 0.00 71 1016.6
20260902144647 88 0 0.0 1.0 0.00 0.40 0.00 72 1016.5
20260902144059 87 0 0.0 4.0 0.00 0.40 0.00 73 1016.5
20260902143558 87 0 0.0 4.0 0.00 0.40 0.00 74 1016.5
20260902143103 87 0 1.0 4.0 0.00 0.40 0.00 76 1016.5
20260902142559 86 0 0.0 5.0 0.00 0.40 0.00 78 1016.4
20260902142101 86 15 2.0 5.0 0.00 0.40 0.00 80 1016.4
20260902141604 85 0 0.0 2.0 0.00 0.40 0.00 84 1016.4
20260902141059 84 0 0.0 2.0 0.00 0.40 0.00 85 1016.4
20260902140559 83 0 0.0 2.0 0.00 0.40 0.00 86 1016.4
20260902140105 82 0 0.0 1.0 0.00 0.40 0.00 88 1016.4
20260902135559 82 0 0.0 1.0 0.00 0.40 0.00 88 1016.2
20260902135059 82 0 0.0 2.0 0.00 0.40 0.00 89 1016.3
20260902134620 82 0 0.0 2.0 0.00 0.40 0.00 89 1016.3
20260902134058 81 0 0.0 3.0 0.00 0.40 0.00 89 1016.2
20260902133559 81 0 0.0 3.0 0.00 0.40 0.00 89 1016.3
20260902133102 81 5 0.0 3.0 0.00 0.40 0.00 90 1016.3
20260902132600 80 0 0.0 0.0 0.00 0.40 0.00 89 1016.4
20260902132059 80 0 0.0 0.0 0.00 0.40 0.00 90 1016.4
20260902131601 80 0 0.0 0.0 0.00 0.40 0.00 89 1016.4
20260902131059 80 0 0.0 0.0 0.00 0.40 0.00 89 1016.3
20260902130558 79 0 0.0 0.0 0.00 0.40 0.00 90 1016.3
20260902130106 79 0 0.0 0.0 0.00 0.40 0.00 89 1016.4
20260902125603 79 0 0.0 0.0 0.00 0.40 0.00 89 1016.4
20260902125100 79 0 0.0 0.0 0.00 0.40 0.00 89 1016.4
20260902124602 78 0 0.0 0.0 0.00 0.40 0.00 89 1016.2
20260902124102 78 0 0.0 0.0 0.00 0.40 0.00 89 1016.0
20260902123602 78 0 0.0 0.0 0.00 0.40 0.00 89 1016.0
20260902123102 78 0 0.0 0.0 0.00 0.40 0.00 89 1016.1
20260902122600 78 0 0.0 1.0 0.00 0.40 0.00 89 1016.0
20260902122100 78 0 0.0 2.0 0.00 0.40 0.00 89 1015.8
20260902121602 78 0 0.0 2.0 0.00 0.40 0.00 89 1015.8
20260902121100 77 0 0.0 0.0 0.00 0.40 0.00 89 1015.8
20260902120600 77 0 0.0 0.0 0.00 0.40 0.00 89 1015.7
20260902120107 77 0 0.0 0.0 0.00 0.40 0.00 89 1015.7
20260902115559 77 0 0.0 0.0 0.00 0.40 0.00 89 1015.9
20260902115104 77 0 0.0 0.0 0.00 0.40 0.00 89 1015.9
20260902114604 77 0 0.0 0.0 0.00 0.40 0.00 88 1015.9
20260902114102 76 0 0.0 0.0 0.00 0.40 0.00 88 1015.9
20260902113600 77 0 0.0 0.0 0.00 0.40 0.00 88 1015.9
20260902113110 77 0 0.0 0.0 0.00 0.40 0.00 88 1015.9
20260902112558 76 0 0.0 0.0 0.00 0.40 0.00 88 1016.0
20260902112059 76 0 0.0 0.0 0.00 0.40 0.00 88 1016.0
20260902111605 76 0 0.0 0.0 0.00 0.40 0.00 88 1016.0
20260902111100 76 0 0.0 0.0 0.00 0.40 0.00 88 1015.7
20260902110602 76 0 0.0 0.0 0.00 0.40 0.00 88 1015.8
20260902110105 76 0 0.0 0.0 0.00 0.40 0.00 88 1015.7
20260902105559 76 0 0.0 0.0 0.00 0.40 0.00 88 1015.5
20260902105059 76 0 0.0 0.0 0.00 0.40 0.00 88 1015.4
20260902104601 76 0 0.0 0.0 0.00 0.40 0.00 88 1015.4
20260902104100 76 0 0.0 0.0 0.00 0.40 0.00 88 1015.4
20260902103558 76 0 0.0 0.0 0.00 0.40 0.00 88 1015.3
20260902103108 76 0 0.0 0.0 0.00 0.40 0.00 88 1015.3
20260902102559 77 0 0.0 0.0 0.00 0.40 0.00 88 1015.4
20260902102100 77 0 0.0 0.0 0.00 0.40 0.00 88 1015.4
20260902101600 77 0 0.0 0.0 0.00 0.40 0.00 88 1015.4
20260902101100 77 0 0.0 0.0 0.00 0.40 0.00 88 1015.5
20260902100559 77 0 0.0 0.0 0.00 0.40 0.00 88 1015.5
20260902095558 77 0 0.0 0.0 0.00 0.40 0.00 88 1015.2
20260902095100 76 0 0.0 0.0 0.00 0.40 0.00 88 1014.9
20260902094605 76 0 0.0 0.0 0.00 0.40 0.00 88 1014.9
20260902094059 76 0 0.0 0.0 0.00 0.40 0.00 88 1014.9
20260902093559 77 0 0.0 0.0 0.00 0.40 0.00 88 1015.0
20260902093104 77 0 0.0 0.0 0.00 0.40 0.00 88 1014.8
20260902092601 77 0 0.0 0.0 0.00 0.40 0.00 88 1014.7
20260902092059 77 0 0.0 0.0 0.00 0.40 0.00 88 1014.8
20260902091605 77 0 0.0 0.0 0.00 0.40 0.00 88 1014.7
20260902091102 77 0 0.0 0.0 0.00 0.40 0.00 88 1014.7
20260902090604 77 0 0.0 0.0 0.00 0.40 0.00 88 1014.7
20260902090104 77 0 0.0 0.0 0.00 0.40 0.00 88 1014.8
20260902085559 77 0 0.0 0.0 0.00 0.40 0.00 87 1014.5
20260902085059 77 0 0.0 0.0 0.00 0.40 0.00 87 1014.6
20260902084614 77 0 0.0 0.0 0.00 0.40 0.00 87 1014.6
20260902084103 77 0 0.0 0.0 0.00 0.40 0.00 87 1014.6
20260902083559 77 0 0.0 0.0 0.00 0.40 0.00 87 1014.6
20260902083105 77 0 0.0 0.0 0.00 0.40 0.00 87 1014.7
20260902082600 77 0 0.0 0.0 0.00 0.40 0.00 87 1014.8
20260902082057 77 0 0.0 0.0 0.00 0.40 0.00 87 1014.7
20260902081610 77 0 0.0 0.0 0.00 0.40 0.00 87 1014.8
20260902081059 77 0 0.0 0.0 0.00 0.40 0.00 87 1014.8
20260902080600 77 0 0.0 0.0 0.00 0.40 0.00 87 1014.7
20260902075559 77 0 0.0 0.0 0.00 0.40 0.00 87 1014.7
20260902075103 77 0 0.0 0.0 0.00 0.40 0.00 87 1014.7
20260902074617 77 0 0.0 0.0 0.00 0.40 0.00 87 1014.9
20260902074100 77 0 0.0 0.0 0.00 0.40 0.00 87 1014.9
20260902073559 77 0 0.0 0.0 0.00 0.40 0.00 87 1014.9
20260902073104 77 0 0.0 0.0 0.00 0.40 0.00 87 1014.8
20260902072601 77 0 0.0 0.0 0.00 0.40 0.00 87 1014.9
20260902072103 77 0 0.0 0.0 0.00 0.40 0.00 87 1014.8
20260902071601 77 0 0.0 0.0 0.00 0.40 0.00 87 1014.9
20260902071059 77 0 0.0 0.0 0.00 0.40 0.00 87 1015.1
20260902070558 77 0 0.0 0.0 0.00 0.40 0.00 87 1015.1
20260902070106 77 0 0.0 0.0 0.00 0.40 0.00 87 1015.1
20260902065559 77 0 0.0 0.0 0.00 0.40 0.00 87 1015.1
20260902065100 77 0 0.0 0.0 0.00 0.40 0.00 87 1015.3
20260902064604 77 0 0.0 0.0 0.00 0.40 0.00 87 1015.2
20260902064101 77 0 0.0 0.0 0.00 0.40 0.00 87 1015.3